Погода в Владикавказе

Погода в Владикавказе : погода сейчас, прогноз погоды и архив. Всё, что Вы хотите узнать о погоде в Владикавказе!

Поиск расширенной информации на нашем сайте:

Другие новости

Новости СМИ2

Главная страница сайта

Новости сайта

03.07.2017

Напоминаем, что на нашем специализированном сайте Метеоцентр.Азия вы можете получить высокодетализированные автоматические прогнозы погоды по пунктам России, СНГ и мира в авиационном формате (включающие направление и скорость ветра, видимость, явления погоды, количество и форму облачности, нижнюю и верхнюю границу облачности).

Рекомендуем: Интернет магазин вышивки и вязания пряжа http://www.kudel.ru.

Погода в Владикавказе - сегодня

Время (UTC), дата Ветер
(°,м/с) 
Видим.   Явления Облачность Т
(°С)
Тd
(°С)
f(%) Тe
(°С)
Pmin
(гПа)
dP
(гПа)
Po
(мм)
O2
(г/м3)
Тmin Tmax R s Состояние
почвы
03 12.11.18 300 (СЗ) 1000 м  дымка{морось}  10/10 200 м 
[St]
+1.4 +0.1 91 +2  1030.5  709  284  +1.4    0.7     
06 12.11.18 290 (З) 1000 м  слаб. морось{туман}  10/10 200 м 
[St]
+2 +0.7 91 +3  1030.9  0.5  709  283           
09 12.11.18 280 (З) 1000 м  в посл. час морось  10/10 300 м 
[St]
+2.6 +0.8 88 +3  1029.9  -0.7  709  283           
12 12.11.18 330 (СЗ) 1000 м  дымка{морось}  10/10 300 м 
[Sc]
+2.7 +0.6 86 +3  1030.2  0.3  709  283           
15 12.11.18 100 (В) 2000 м  дымка  10/0 
[Sc]
+2.4 -0.3 82 +3  1030.6  0.2  709  283    +3.1  0.2     
18 12.11.18 090 (В) 2000 м  в посл. час дождь  10/10 300 м 
[Sc]
+2.2 -0.7 81 +2  1030  -0.6  708  283           
21 12.11.18 тихо ()   2000 м  дымка  10/10 300 м 
[Sc]
+1.8 -1 82 +2  1029  -1  708  283           
00 13.11.18 310 (СЗ) 2000 м  дымка  10/10 300 м 
[Sc]
+0.7 -0.6 91 +1  1028.6  -0.7  707  284           
03 13.11.18 310 (СЗ) 0500 м  туман  ?/?  
+0.3 -0.8 92 +1  1028.3  -0.4  707  284  +0.2    0.2    влажная 
06 13.11.18 090 (В) 1000 м  дымка{туман}  10/10 300 м 
[St]
+0.9 -0.4 91 +2  1028.2  0.1  707  284           
09 13.11.18 тихо ()   4000 м  дымка  10/10 300 м 
[St]
+2.1 -0.5 83 +2  1027  -0.8  706  282           
12 13.11.18 310 (СЗ) 10 км    10/10 300 м 
[St]
+2.4 -0.9 79 +2  1027.3  0.4  707  282           
15 13.11.18 270 (З) 4000 м  дымка  10/10 200 м 
[St]
+1.7 -0.3 87 +2  1028.8  1.2  708  283    +3.3       
18 13.11.18 290 (З) 1000 м  слаб. морось  10/10 200 м 
[St]
+1.2 +0 92 +2  1029  708  284           
21 13.11.18 290 (З) 1000 м  слаб. морось  10/10 200 м 
[St]
+1.2 +0 92 +2  1028.2  -0.7  707  284           
00 14.11.18 270 (З) 1000 м  слаб. морось  10/10 200 м 
[St]
+1.1 -0.1 92 +2  1027.7  -0.5  707  283           
03 14.11.18 тихо ()   4000 м  дымка{морось}  10/10 600 м 
[St]
+0.9 -0.4 91 +1  1027  -0.7  706  284  +0.9    0.4     
06 14.11.18 тихо ()   10 км  {морось}  10/10 600 м 
[Sc]
+2.4 +0 84 +2  1026.2  -0.3  706  282           
09 14.11.18 310 (СЗ) 10 км    10/10 600 м кучево-дожд. 
[Cb calv]
+3.8 -0.3 75 +5  1024.7  -1  705  280           
12 14.11.18 270 (З) 10 км    10/10 600 м кучево-дожд. 
[Cb calv]
+3.9 -0.1 75 +5  1023.8  -0.8  705  280           
18 14.11.18 250 (З) 2000 м  дымка  10/10 600 м 
[Sc]
+2.5 +0.6 87 +3  1023.2  -0.3  704  281           
21 14.11.18 тихо ()   2000 м  дымка  10/10 600 м 
[Sc]
+2.2 +0.3 87 +2  1022.1  -1.1  703  281           
00 15.11.18 тихо ()   2000 м  дымка  10/10 600 м 
[Sc]
+2.3 +0.5 88 +2  1020.3  -1.6  702  280           
03 15.11.18 280 (З) 2000 м  дымка  10/10 600 м 
[Sc]
+2.2 +0.6 89 +3  1019.8  -0.5  701  280  +1.9         
06 15.11.18 270 (З) 2000 м  дымка  10/10 300 м 
[Sc]
+2.6 +0.8 88 +3  1019.3  -0.4  701  280           
Время (UTC), дата Ветер
(°,м/с) 
Видим.   Явления Облачность Т
(°С)
Тd
(°С)
f(%) Тe
(°С)
Pmin
(гПа)
dP
(гПа)
Po
(мм)
O2
(г/м3)
Тmin Tmax R s Состояние
почвы

Для получения пояснительной информации подведите курсор к названию столбца.

ПОГОДА в Владикавказе - архив

Всё, что Вы хотите узнать о погоде в Владикавказе - удобно и подробно!

Выберите нужную дату (начиная с 1 января 2015* года) и нажмите кнопку "Найти".
Будут отображены архивные сводки погоды по пункту Владикавказ, начиная с указанной даты.


Отображать данные в формате CSV (для использования в таблицах Excel)


Внимание! Наш архив погоды предназначен исключительно для личного некоммерческого использования в познавательных целях. Если Вам необходимы официальные справки о состоянии погоды (для производственных, юридических, коммерческих и т.п. целей), обращайтесь в органы Росгидромета.

*Примечание: данная дата относится к архиву по метеостанциям СССР (Россия, СНГ, Балтия).
Архив по метеостанциям Зарубежной Европы и Азии (кроме Китая) хранится 10 дней, по другим регионам земного шара (Китай, Африка, Америка, Австралия, Океания) - 1 день.

Владикавказ - район местоположения метеостанции


Название, широта, долгота, высота метеостанции:
Владикавказ 43.1°ш. 44.6°д. 703 м над ур. моря [Российская Федерация]

Дополнительная информация

В oтличие oт бoльшинства пoгoдных сайтoв мы публикуем пoдрoбную метеoинфoрмацию в детальнoм прoфессиoнальнoм фoрмате.

Характеристики температуры и влажнoсти вoздуха измеряются на высoте 2 м в тени вдали oт зданий и деревьев.
Скoрoсть ветра измеряется на высoте 10 м (на урoвне рoста челoвека скoрoсть ветра ниже в 1.5-2 раза). Если метеoстанция нахoдится в гoрoде или в лесу, тo скoрoсть ветра занижена на 2-4 м/с пo сравнению с oткрытым местoм. Скoрoсть ветра над акватoриями крупных рек и oзёр, а также на вершинах хoлмoв на 2-5 м/с выше, чем в oбычных услoвиях.
Атмoсфернoе давление в разных тoчках местнoсти мoжет значительнo oтличаться oт давления на метеoстанции, в зависимoсти oт услoвий рельефа (при пoдъёме на 10 м давление пoнижается примернo на 1 мм рт.ст.).